Regional Weather Roundup
Issued by NWS Huntsville, AL

Home | Current Version | Previous Version | Text Only | Print | Product List | Glossary On
Versions: 1 2 3 4 5 6 7 8 9 10 11 12 13 14 15 16 17 18 19 20 21 22 23 24 25 26 27 28
000
ASUS44 KHUN 262210
RWRHUN

WEATHER ROUNDUP FOR THE TENNESSEE VALLEY
NATIONAL WEATHER SERVICE HUNTSVILLE AL
500 PM CDT TUE SEP 26 2017

ALZ001>004-262300-
NORTHWEST ALABAMA

CITY           SKY/WX    TMP DP  RH WIND       PRES   REMARKS
COURTLAND HCN    N/A     86 N/A N/A NE5         N/A
RUSSELLVILLE     N/A     86 N/A N/A MISG        N/A
SHOALS AIRPORT MOSUNNY   89  62  40 SE5       29.94S
SHOALS TVA RES   N/A     86 N/A N/A MISG        N/A
$$

ALZ005>007-016-262300-
NORTH CENTRAL ALABAMA

CITY           SKY/WX    TMP DP  RH WIND       PRES   REMARKS
CULLMAN AG STN   N/A     84 N/A N/A CALM        N/A
DECATUR AP     SUNNY     88  65  46 SW3       29.93F HX  90
HUNTSVILLE AP  MOSUNNY   90  65  43 VRB5      29.93S HX  92
MERIDIANVILLE  SUNNY     86  61  42 E6        29.94S
REDSTONE ARSN  PTSUNNY   88  64  43 N5        29.92F
VINEMONT AP    FAIR      85  62  45 N3        29.98S
$$

ALZ008>010-262300-
NORTHEAST ALABAMA

CITY           SKY/WX    TMP DP  RH WIND       PRES   REMARKS
ALBERTVILLE    SUNNY     82  68  61 N6        29.95S
FORT PAYNE     SUNNY     84  57  39 NE8       29.94S
SCOTTSBORO HCN   N/A     82 N/A N/A MISG        N/A
VALLEY HEAD      N/A     82 N/A N/A MISG        N/A
$$

TNZ076-096-097-262300-
SOUTHEASTERN MIDDLE TENNESSEE

CITY           SKY/WX    TMP DP  RH WIND       PRES   REMARKS
TULLAHOMA      SUNNY     84  59  42 VRB3      29.97
WINCHESTER     SUNNY     84  64  51 N3        29.95
$$

...SURROUNDING SITES...

CITY           SKY/WX    TMP DP  RH WIND       PRES   REMARKS
ATLANTA        MOSUNNY   86  63  45 NW9       29.93S
ANNISTON       MOSUNNY   87  62  43 N8        29.93S
BIRMINGHAM     MOSUNNY   85  61  44 N6        29.95S
CHATTANOOGA    MOSUNNY   88  60  38 NE9       29.93S
DALTON         SUNNY     86  63  45 CALM      29.94S
GADSDEN        SUNNY     86  67  52 N8        29.93S
GOLDEN TRNGL   SUNNY     88  64  45 CALM      29.91S
JACKSON TN     MOSUNNY   90  65  43 N3        29.94S HX  92
MEMPHIS        PTSUNNY   87  65  47 NE5       29.93S
NASHVILLE      MOSUNNY   89  61  38 N5        29.95R
OXFORD MS      FAIR      84  66  54 NE5       29.94
ROME           SUNNY     88  62  41 N8        29.92S
SELMER         SUNNY     88  63  42 VRB3      29.94S
TUPELO         SUNNY     88  63  43 N7        29.92S
TUSCALOOSA     SUNNY     90  63  40 NE7       29.90F HX  91
$$

...GULF COAST WEATHER...

CITY           SKY/WX    TMP DP  RH WIND       PRES   REMARKS
GULFPORT       SUNNY     85  73  67 SE10      29.87S HX  91
PASCAGOULA     SUNNY     85  71  63 SW6       29.87S HX  90
MOBILE         CLOUDY    86  72  62 W5        29.87F HX  92
GULF SHORES    PTCLDY    83  75  76 SE7       29.87S HX  91
PENSACOLA      MOSUNNY   84  74  71 S9        29.87S HX  91
DESTIN         SUNNY     87  73  62 VRB5      29.86S HX  94
PANAMA CITY    SUNNY     85  72  63 SW9       29.86F HX  91
APPALACHICOLA  MOSUNNY   87  72  60 W10       29.86S HX  93
$$





USA.gov is the U.S. government's official web portal to all federal, state and local government web resources and services.